Location: Clatteringshaws Loch
(55.0508°N, 4.2860°W)
Time: 03:02:32
(UTC+00:00)

Amateur Radio Satellites - All Passes

Search period start: 24 January 2017 02:32
Search period end: 25 January 2017 02:32
Location: Clatteringshaws Loch, 55.0508°N, 4.2860°W

Satellite Date Start Highest point End Downlink Frequencies (MHz)
Time Altitude Azimuth
Cosmos 2504 24 Jan 02:40:24 02:47:30 49° 271° (W) 02:54:19 435.465 / 435.565
CUBESAT XI-V 24 Jan 02:42:35 02:46:15 23° 56° (ENE) 02:49:55 437.345
STARS 24 Jan 02:42:38 02:45:56 21° 56° (NE) 02:49:14 437.465
GONETS M04 24 Jan 02:44:07 02:47:09 12° 20° (NNE) 02:50:10
DANDE 24 Jan 02:47:20 02:50:51 20° 77° (ENE) 02:55:03 436.750
AIST 2 24 Jan 02:47:55 02:52:10 74° 226° (SW) 02:56:24 435.215
Cosmos 2491 24 Jan 02:48:29 02:57:12 74° 286° (WNW) 03:06:00 435.465 / 435.565
M-CUBED/EXP-1 PRIME 24 Jan 02:56:29 03:00:39 86° 66° (ENE) 03:04:30 437.505
AO-7 24 Jan 02:56:32 03:03:38 29° 91° (E) 03:10:40 29.400- 29.500
CUSAT 1 24 Jan 02:59:01 03:05:00 67° 97° (E) 03:12:25 437.405
BUGSAT 1 24 Jan 03:07:02 03:08:29 12° 310° (NW) 03:09:55 437.445
Gurwin Techsat 1B 24 Jan 03:13:16 03:18:31 59° 293° (WNW) 03:23:44 435.225
JAS-2 24 Jan 03:19:58 03:22:05 12° 330° (NNW) 03:24:15 435.910
ITAMSAT 1 24 Jan 03:20:08 03:25:11 47° 99° (E) 03:30:12 435.822/435.867
MOZHAYETS 4 24 Jan 03:22:57 03:27:23 47° 261° (W) 03:31:52
AUBIESAT-1 24 Jan 03:30:05 03:34:05 56° 251° (WSW) 03:37:50 437.475
ITUPSAT 1 24 Jan 03:30:51 03:34:05 18° 272° (W) 03:37:19 437.325
ISS 24 Jan 03:33:52 03:34:58 11° 217° (SW) 03:36:03 145.825
KKS-1 24 Jan 03:34:54 03:39:21 86° 256° (WSW) 03:43:50 437.445
RS-15 24 Jan 03:41:15 03:53:18 55° 356° (N) 04:05:25 29.354- 29.394
BRITE-PL 24 Jan 03:43:11 03:44:00 10° 78° (ENE) 03:44:48 437.365/2234.400
PCSat 24 Jan 03:46:55 03:51:28 26° 345° (NNW) 03:56:02 145.827
YUBILEINY 24 Jan 03:48:27 03:53:33 17° 293° (WNW) 03:58:39 435.215
Oscar 19 24 Jan 04:09:31 04:12:56 18° 311° (NW) 04:16:19 437.125/150
STARS 24 Jan 04:17:32 04:21:54 69° 256° (WSW) 04:26:17 437.465
CUBESAT XI-V 24 Jan 04:18:29 04:23:12 72° 257° (WSW) 04:27:58 437.345
STRAND 1 24 Jan 04:23:35 04:26:09 14° 45° (NE) 04:28:43 437.568
AIST 2 24 Jan 04:27:38 04:29:59 15° 247° (WSW) 04:32:18 435.215
DANDE 24 Jan 04:27:43 04:32:27 83° 284° (WNW) 04:38:55 436.750
HORYU 2 24 Jan 04:30:04 04:31:30 11° 84° (E) 04:32:57 437.375
M-CUBED/EXP-1 PRIME 24 Jan 04:33:17 04:35:34 14° 264° (W) 04:37:45 437.505
Cosmos 2504 24 Jan 04:36:52 04:38:52 11° 295° (WNW) 04:40:53 435.465 / 435.565
GONETS M04 24 Jan 04:40:35 04:48:02 29° 52° (NE) 04:55:28
CUSAT 1 24 Jan 04:41:45 04:47:34 36° 303° (WNW) 04:54:28 437.405
O/OREOS (USA 219) 24 Jan 04:43:01 04:44:00 11° 96° (E) 04:44:59 437.305
Cosmos 2499 24 Jan 04:48:48 04:55:00 29° 57° (ENE) 05:01:02 435.465 / 435.565
Cosmos 2491 24 Jan 04:48:53 04:55:49 25° 312° (NW) 05:02:47 435.465 / 435.565
AO-7 24 Jan 04:49:00 04:57:27 87° 294° (WNW) 05:05:49 29.400- 29.500
Gurwin Techsat 1B 24 Jan 04:54:28 04:57:31 16° 314° (NW) 05:00:33 435.225
ITAMSAT 1 24 Jan 04:59:49 05:04:35 37° 300° (WNW) 05:09:21 435.822/435.867
CUTE-I 24 Jan 05:00:22 05:01:40 11° 80° (E) 05:02:59 437.470
GOMX 1 24 Jan 05:03:35 05:06:55 20° 88° (E) 05:10:08 467.674
KKS-1 24 Jan 05:14:16 05:16:37 14° 274° (W) 05:18:59 437.445
BRITE-PL 24 Jan 05:18:47 05:23:43 61° 101° (E) 05:28:14 437.365/2234.400
DOVE 4 24 Jan 05:23:42 05:25:45 13° 85° (E) 05:27:47 437.250
PCSat 24 Jan 05:32:05 05:36:31 25° 11° (N) 05:40:59 145.827
NOAA 15 24 Jan 05:37:51 05:41:56 22° 89° (E) 05:45:59 137.62
Cubesat XI-IV 24 Jan 05:42:44 05:46:57 23° 90° (E) 05:51:08 437.490
RS-15 24 Jan 05:55:41 06:08:05 67° 28° (NNE) 06:20:16 29.354- 29.394
STARS 24 Jan 05:57:52 05:59:06 11° 276° (W) 06:00:20 437.465
STRAND 1 24 Jan 05:59:22 06:04:20 54° 66° (ENE) 06:09:20 437.568
CUBESAT XI-V 24 Jan 05:59:24 06:01:27 13° 277° (W) 06:03:31 437.345
HORYU 2 24 Jan 06:04:26 06:08:55 70° 104° (ESE) 06:13:23 437.375
HO-68 24 Jan 06:11:53 06:15:10 13° 79° (ENE) 06:18:27 435.675
DANDE 24 Jan 06:12:30 06:16:31 21° 314° (NW) 06:21:24 436.750
O/OREOS (USA 219) 24 Jan 06:18:05 06:22:30 64° 117° (ESE) 06:26:57 437.305
NOAA 18 24 Jan 06:18:34 06:23:03 25° 91° (E) 06:27:28 137.9125
LilacSat-2 24 Jan 06:23:01 06:26:48 48° 100° (E) 06:30:34 437.200
CINEMA 3 24 Jan 06:23:43 06:25:54 14° 86° (E) 06:28:07 145.822/145.860
CUSAT 1 24 Jan 06:28:33 06:32:06 14° 329° (NNW) 06:35:53 437.405
CUTE 1.7 + AOD 2 24 Jan 06:37:10 06:38:38 11° 83° (E) 06:40:06 437.475
GONETS M04 24 Jan 06:37:25 06:46:20 84° 78° (ENE) 06:55:13
CUTE-I 24 Jan 06:37:40 06:42:57 56° 101° (ESE) 06:48:12 437.470
GOMX 1 24 Jan 06:41:05 06:45:31 61° 290° (WNW) 06:49:42 467.674
Cosmos 2499 24 Jan 06:41:47 06:49:01 78° 261° (W) 06:56:03 435.465 / 435.565
ITAMSAT 1 24 Jan 06:41:55 06:42:45 10° 321° (NW) 06:43:35 435.822/435.867
AO-7 24 Jan 06:42:14 06:49:25 33° 317° (NW) 06:56:33 29.400- 29.500
Cosmos 2491 24 Jan 06:54:56 06:57:00 11° 344° (NNW) 06:59:04 435.465 / 435.565
BRITE-PL 24 Jan 06:57:45 07:01:51 26° 303° (WNW) 07:05:41 437.365/2234.400
DOVE 4 24 Jan 06:59:56 07:04:11 89° 293° (WNW) 07:08:20 437.250
CANX-2 24 Jan 07:05:46 07:09:14 23° 91° (E) 07:12:41 2200.000
COMPASS 1 24 Jan 07:08:03 07:09:03 11° 83° (E) 07:10:04 437.405
SEEDS 24 Jan 07:09:00 07:11:39 16° 87° (E) 07:14:17 437.485
PCSat 24 Jan 07:15:55 07:21:10 46° 35° (NE) 07:26:25 145.827
NOAA 15 24 Jan 07:16:58 07:22:20 78° 291° (WNW) 07:27:38 137.62
SO-50 24 Jan 07:18:26 07:22:36 33° 123° (ESE) 07:26:45 436.795
Cubesat XI-IV 24 Jan 07:22:14 07:27:36 75° 290° (WNW) 07:32:56 437.490
STRAND 1 24 Jan 07:39:22 07:43:49 30° 267° (W) 07:48:18 437.568
HORYU 2 24 Jan 07:41:40 07:45:05 22° 304° (NW) 07:48:29 437.375
PRISM 24 Jan 07:46:12 07:50:01 36° 64° (ENE) 07:53:51 437.425
UNISAT 6 24 Jan 07:48:28 07:51:13 17° 54° (NE) 07:53:59 437.425
Oscar 11 24 Jan 07:52:08 07:52:38 10° 82° (E) 07:53:09 145.826/435.025
HO-68 24 Jan 07:57:34 08:04:38 55° 101° (ESE) 08:11:39 435.675
LilacSat-2 24 Jan 07:57:46 08:00:52 23° 299° (WNW) 08:03:58 437.200
O/OREOS (USA 219) 24 Jan 07:58:26 08:02:17 27° 318° (NW) 08:06:10 437.305
NOAA 18 24 Jan 07:58:46 08:04:14 71° 292° (WNW) 08:09:39 137.9125
CINEMA 3 24 Jan 07:59:29 08:03:41 89° 282° (WNW) 08:08:00 145.822/145.860
TIGRISAT 24 Jan 08:00:10 08:03:12 19° 56° (NE) 08:06:16 435.000
RS-15 24 Jan 08:08:46 08:20:55 66° 237° (WSW) 08:32:42 29.354- 29.394
CUTE 1.7 + AOD 2 24 Jan 08:10:56 08:15:16 74° 103° (ESE) 08:19:34 437.475
ANTELSAT 24 Jan 08:15:48 08:19:20 26° 60° (ENE) 08:22:55 437.575/2403.000
CUTE-I 24 Jan 08:18:05 08:22:48 33° 302° (WNW) 08:27:31 437.470
GOMX 1 24 Jan 08:20:51 08:22:43 12° 312° (NW) 08:24:32 467.674
JAS-2 24 Jan 08:24:22 08:28:51 23° 47° (NE) 08:33:44 435.910
CUBEBUG 2 24 Jan 08:27:03 08:31:18 51° 100° (E) 08:35:40 437.445
FUNcube-1 24 Jan 08:31:18 08:34:56 25° 92° (E) 08:38:37 145.935
GONETS M04 24 Jan 08:34:58 08:42:15 30° 282° (WNW) 08:49:33
AO-7 24 Jan 08:35:00 08:39:50 17° 343° (NNW) 08:44:39 29.400- 29.500
Cosmos 2499 24 Jan 08:36:14 08:40:55 19° 286° (WNW) 08:45:33 435.465 / 435.565
DOVE 4 24 Jan 08:38:48 08:41:18 16° 307° (NW) 08:43:47 437.250
COMPASS 1 24 Jan 08:41:11 08:45:25 71° 103° (ESE) 08:49:37 437.405
CANX-2 24 Jan 08:41:11 08:45:25 55° 291° (WNW) 08:49:37 2200.000
SEEDS 24 Jan 08:43:37 08:47:55 80° 287° (WNW) 08:52:10 437.485
UWE-3 24 Jan 08:46:55 08:51:12 52° 100° (E) 08:55:36 435.000/436.395/437.385
AAUSAT CUBESAT 2 24 Jan 08:48:18 08:52:29 66° 101° (ESE) 08:56:39 437.432
POPSAT HIP 1 24 Jan 08:55:57 08:56:47 11° 48° (NE) 08:57:38 437.405
ZACube-1 24 Jan 08:56:30 09:00:42 42° 98° (E) 09:04:57 437.345
Cosmos 2491 24 Jan 08:56:33 08:59:28 12° 20° (NNE) 09:02:23 435.465 / 435.565
NOAA 15 24 Jan 08:57:40 09:01:23 20° 311° (NW) 09:05:05 137.62
SO-50 24 Jan 08:58:15 09:02:54 62° 323° (NW) 09:07:29 436.795
PCSat 24 Jan 08:59:26 09:04:44 53° 238° (WSW) 09:09:59 145.827
DUCHIFAT 1 24 Jan 09:01:41 09:02:25 10° 48° (NE) 09:03:09 145.980
Cubesat XI-IV 24 Jan 09:03:17 09:06:55 19° 311° (NW) 09:10:32 437.490
NANOSAT C BR1 24 Jan 09:08:12 09:10:00 13° 50° (NE) 09:11:47 145.865
PRISM 24 Jan 09:21:33 09:25:20 33° 263° (W) 09:29:09 437.425
UNISAT 6 24 Jan 09:23:07 09:27:23 88° 252° (WSW) 09:31:43 437.425
Oscar 11 24 Jan 09:25:18 09:29:40 65° 102° (ESE) 09:34:00 145.826/435.025
DELFI C3 24 Jan 09:29:46 09:33:17 28° 94° (E) 09:36:45 145.870
TIGRISAT 24 Jan 09:35:13 09:39:27 74° 257° (WSW) 09:43:46 435.000
CINEMA 3 24 Jan 09:37:46 09:40:18 16° 306° (NW) 09:42:51 145.822/145.860
NOAA 18 24 Jan 09:40:25 09:44:05 19° 313° (NW) 09:47:43 137.9125
O/OREOS (USA 219) 24 Jan 09:41:53 09:43:15 11° 343° (NNW) 09:44:38 437.305
HO-68 24 Jan 09:45:33 09:52:19 46° 303° (WNW) 09:59:03 435.675
CUTE 1.7 + AOD 2 24 Jan 09:47:34 09:50:40 20° 303° (WNW) 09:53:46 437.475
ANTELSAT 24 Jan 09:51:43 09:55:51 50° 260° (W) 10:00:04 437.575/2403.000
QB50P1 24 Jan 10:00:41 10:04:25 32° 63° (ENE) 10:08:09 145.935-145.965
CUSAT 1 24 Jan 10:01:08 10:04:08 12° 26° (NNE) 10:07:09 437.405
CUBEBUG 2 24 Jan 10:04:07 10:07:45 27° 299° (WNW) 10:11:27 437.445
POLYITAN 1 24 Jan 10:06:04 10:09:53 35° 64° (ENE) 10:13:44 437.675
HUMSAT D 24 Jan 10:07:10 10:11:14 39° 97° (E) 10:15:17 437.325/437.525
FUNcube-1 24 Jan 10:07:11 10:11:27 53° 291° (WNW) 10:15:47 145.935
QB50P2 24 Jan 10:07:24 10:11:17 38° 65° (ENE) 10:15:12 145.880/145.840
JAS-2 24 Jan 10:07:25 10:13:03 84° 71° (ENE) 10:19:28 435.910
COMPASS 1 24 Jan 10:17:29 10:20:33 20° 303° (WNW) 10:23:36 437.405
CANX-2 24 Jan 10:19:03 10:20:24 11° 311° (NW) 10:21:44 2200.000
SEEDS 24 Jan 10:20:32 10:22:58 15° 307° (NW) 10:25:23 437.485
RS-15 24 Jan 10:22:26 10:30:56 23° 263° (W) 10:39:18 29.354- 29.394
UWE-3 24 Jan 10:23:50 10:27:28 26° 299° (WNW) 10:31:10 435.000/436.395/437.385
AAUSAT CUBESAT 2 24 Jan 10:24:27 10:27:35 21° 302° (WNW) 10:30:41 437.432
AO-7 24 Jan 10:25:03 10:29:31 16° 11° (N) 10:33:58 29.400- 29.500
POPSAT HIP 1 24 Jan 10:27:37 10:31:41 52° 68° (ENE) 10:35:46 437.405
ESTCUBE 1 24 Jan 10:31:21 10:33:41 14° 85° (E) 10:35:59 437.505/2401.250
ZACube-1 24 Jan 10:33:01 10:36:54 31° 297° (WNW) 10:40:50 437.345
DUCHIFAT 1 24 Jan 10:33:10 10:37:13 51° 68° (ENE) 10:41:17 145.980
Oscar 19 24 Jan 10:37:35 10:40:40 16° 47° (NE) 10:43:46 437.125/150
SO-50 24 Jan 10:40:06 10:44:08 28° 346° (NNW) 10:48:06 436.795
NANOSAT C BR1 24 Jan 10:40:50 10:44:58 65° 70° (ENE) 10:49:08 145.865
PCSat 24 Jan 10:45:26 10:46:57 11° 258° (WSW) 10:48:28 145.827
BUGSAT 1 24 Jan 10:51:19 10:54:56 33° 64° (ENE) 10:58:34 437.445
Cosmos 2491 24 Jan 10:52:58 11:00:22 29° 52° (NE) 11:07:44 435.465 / 435.565
CUBEBUG 1 24 Jan 11:00:20 11:02:50 15° 87° (E) 11:05:18 437.445
Oscar 11 24 Jan 11:02:04 11:05:27 22° 302° (WNW) 11:08:49 145.826/435.025
UNISAT 6 24 Jan 11:02:40 11:04:49 13° 275° (W) 11:06:58 437.425
DELFI C3 24 Jan 11:04:27 11:08:12 38° 294° (WNW) 11:11:54 145.870
BY70-1 24 Jan 11:05:59 11:09:03 35° 98° (E) 11:11:55 436.1900
TIGRISAT 24 Jan 11:15:41 11:16:59 11° 276° (W) 11:18:17 435.000
Gurwin Techsat 1B 24 Jan 11:23:53 11:27:44 21° 51° (NE) 11:31:36 435.225
AISAT 24 Jan 11:27:26 11:30:27 18° 89° (E) 11:33:27 437.250
DANDE 24 Jan 11:31:31 11:35:42 15° 38° (NE) 11:40:08 436.750
HO-68 24 Jan 11:34:08 11:38:27 17° 327° (NNW) 11:42:46 435.675
QB50P1 24 Jan 11:36:12 11:40:08 38° 263° (W) 11:44:06 145.935-145.965
50 SAT 24 Jan 11:40:32 11:42:34 14° 89° (E) 11:44:35 437.505
POLYITAN 1 24 Jan 11:41:53 11:45:42 34° 264° (W) 11:49:34 437.675
CUSAT 1 24 Jan 11:42:18 11:49:02 29° 51° (NE) 11:55:35 437.405
HUMSAT D 24 Jan 11:42:57 11:46:46 32° 297° (WNW) 11:50:37 437.325/437.525
QB50P2 24 Jan 11:43:23 11:47:09 32° 265° (W) 11:50:57 145.880/145.840
FUNcube-1 24 Jan 11:45:31 11:46:49 11° 311° (NW) 11:48:08 145.935
JAS-2 24 Jan 11:54:49 11:59:08 22° 276° (W) 12:03:50 435.910
SPROUT 24 Jan 11:57:33 12:01:02 24° 92° (E) 12:04:32 437.525
VELOX 1 24 Jan 11:59:59 12:03:57 31° 95° (E) 12:07:52 145.980
POPSAT HIP 1 24 Jan 12:04:22 12:07:45 23° 268° (W) 12:11:08 437.405
ESTCUBE 1 24 Jan 12:06:40 12:11:15 82° 104° (ESE) 12:15:47 437.505/2401.250
UKube-1 24 Jan 12:09:33 12:12:19 16° 89° (E) 12:15:03 .
DUCHIFAT 1 24 Jan 12:09:49 12:13:10 23° 268° (W) 12:16:33 145.980
AO-7 24 Jan 12:12:58 12:19:42 28° 38° (NE) 12:26:27 29.400- 29.500
Oscar 19 24 Jan 12:13:58 12:19:07 64° 68° (ENE) 12:24:17 437.125/150
NANOSAT C BR1 24 Jan 12:18:09 12:21:07 19° 270° (W) 12:24:07 145.865
DX 1 24 Jan 12:18:20 12:21:56 25° 93° (E) 12:25:30 434.975-435.025
SO-50 24 Jan 12:21:51 12:25:48 27° 11° (N) 12:29:40 436.795
AIST 1 24 Jan 12:24:18 12:26:31 14° 81° (E) 12:28:44
BUGSAT 1 24 Jan 12:26:37 12:30:19 34° 263° (W) 12:34:02 437.445
CUBEBUG 1 24 Jan 12:35:23 12:39:45 86° 287° (WNW) 12:44:05 437.445
BY70-1 24 Jan 12:36:30 12:39:06 22° 298° (WNW) 12:41:35 436.1900
Cosmos 2491 24 Jan 12:49:48 12:58:39 85° 78° (ENE) 13:07:31 435.465 / 435.565
Gurwin Techsat 1B 24 Jan 13:01:42 13:07:02 85° 72° (ENE) 13:12:24 435.225
AO-85 24 Jan 13:02:01 13:05:47 26° 121° (ESE) 13:09:21 145.980
O/OREOS (USA 219) 24 Jan 13:02:47 13:06:06 20° 35° (NE) 13:09:26 437.305
AISAT 24 Jan 13:03:02 13:07:26 74° 289° (WNW) 13:11:49 437.250
YUBILEINY 24 Jan 13:03:44 13:11:34 38° 82° (E) 13:19:25 435.215
ITAMSAT 1 24 Jan 13:06:57 13:11:24 30° 57° (ENE) 13:15:52 435.822/435.867
TISAT 1 24 Jan 13:10:36 13:13:52 22° 92° (E) 13:17:08 437.305
50 SAT 24 Jan 13:12:38 13:16:12 65° 288° (WNW) 13:19:42 437.505
DANDE 24 Jan 13:13:28 13:20:36 41° 61° (ENE) 13:28:23 436.750
CUSAT 1 24 Jan 13:24:08 13:32:12 82° 75° (ENE) 13:39:44 437.405
SPROUT 24 Jan 13:33:06 13:37:14 51° 292° (WNW) 13:41:22 437.525
Cosmos 2504 24 Jan 13:34:07 13:41:11 32° 82° (E) 13:47:53 435.465 / 435.565
VELOX 1 24 Jan 13:36:22 13:40:31 41° 295° (WNW) 13:44:38 145.980
ESTCUBE 1 24 Jan 13:44:18 13:47:33 20° 305° (NW) 13:50:47 437.505/2401.250
UKube-1 24 Jan 13:44:34 13:48:54 79° 288° (WNW) 13:53:12 .
ITUPSAT 1 24 Jan 13:45:31 13:47:49 13° 84° (E) 13:50:07 437.325
DX 1 24 Jan 13:54:09 13:58:24 51° 293° (WNW) 14:02:36 434.975-435.025
Oscar 19 24 Jan 13:54:31 13:58:52 26° 268° (W) 14:03:13 437.125/150
AIST 1 24 Jan 13:59:06 14:03:28 89° 307° (NW) 14:07:49
SO-50 24 Jan 14:02:36 14:07:07 55° 34° (NE) 14:11:32 436.795
AO-7 24 Jan 14:03:00 14:11:19 72° 62° (ENE) 14:19:41 29.400- 29.500
CUBEBUG 1 24 Jan 14:12:44 14:15:27 16° 307° (NW) 14:18:08 437.445
BEESAT 24 Jan 14:16:11 14:20:02 23° 91° (E) 14:23:52 436.000
SWISSCUBE 24 Jan 14:18:10 14:22:14 26° 93° (E) 14:26:16 437.505
AISAT 24 Jan 14:40:46 14:43:12 15° 309° (NW) 14:45:39 437.250
AO-85 24 Jan 14:41:27 14:45:56 70° 321° (NW) 14:50:06 145.980
O/OREOS (USA 219) 24 Jan 14:41:45 14:46:17 76° 57° (ENE) 14:50:48 437.305
GOMX 1 24 Jan 14:43:11 14:45:19 13° 48° (NE) 14:47:25 467.674
Gurwin Techsat 1B 24 Jan 14:43:51 14:47:41 20° 272° (W) 14:51:32 435.225
ITAMSAT 1 24 Jan 14:45:30 14:50:37 60° 258° (WSW) 14:55:47 435.822/435.867
TISAT 1 24 Jan 14:45:44 14:49:50 55° 291° (WNW) 14:53:55 437.305
Cosmos 2491 24 Jan 14:47:24 14:54:36 30° 282° (WNW) 15:01:50 435.465 / 435.565
50 SAT 24 Jan 14:48:20 14:48:42 10° 308° (NW) 14:49:04 437.505
CUTE-I 24 Jan 14:52:52 14:53:43 10° 38° (NE) 14:54:33 437.470
DANDE 24 Jan 14:56:09 15:03:51 71° 261° (W) 15:12:10 436.750
BRITE-PL 24 Jan 14:58:09 15:03:00 31° 60° (ENE) 15:07:41 437.365/2234.400
YUBILEINY 24 Jan 14:59:02 15:07:52 70° 287° (WNW) 15:16:45 435.215
BEESAT 3 24 Jan 14:59:43 15:01:58 15° 115° (ESE) 15:04:14 437.485
HO-68 24 Jan 15:05:43 15:08:05 12° 20° (NNE) 15:10:27 435.675
CUSAT 1 24 Jan 15:06:42 15:13:27 32° 277° (W) 15:19:51 437.405
MOZHAYETS 4 24 Jan 15:10:39 15:14:34 26° 92° (E) 15:18:29
SPROUT 24 Jan 15:11:24 15:12:15 11° 312° (NW) 15:13:06 437.525
KKS-1 24 Jan 15:20:34 15:22:02 11° 84° (E) 15:23:30 437.445
ITUPSAT 1 24 Jan 15:21:41 15:26:31 74° 104° (ESE) 15:31:20 437.325
UKube-1 24 Jan 15:21:46 15:24:17 15° 309° (NW) 15:26:48 .
Cosmos 2504 24 Jan 15:25:31 15:33:59 78° 284° (WNW) 15:41:53 435.465 / 435.565
NOAA 15 24 Jan 15:27:40 15:31:00 17° 47° (NE) 15:34:20 137.62
DX 1 24 Jan 15:32:25 15:33:41 11° 313° (NW) 15:34:55 434.975-435.025
HORYU 2 24 Jan 15:33:42 15:37:22 26° 59° (ENE) 15:41:04 437.375
Cubesat XI-IV 24 Jan 15:34:13 15:37:40 18° 48° (NE) 15:41:08 437.490
AIST 1 24 Jan 15:39:07 15:41:45 16° 302° (WNW) 15:44:23
LilacSat-2 24 Jan 15:40:25 15:41:39 11° 52° (NE) 15:42:52 437.200
SO-50 24 Jan 15:43:18 15:47:28 37° 236° (SW) 15:51:35 436.795
BEESAT 2 24 Jan 15:53:06 15:56:09 21° 118° (ESE) 15:59:14 435.950
BEESAT 24 Jan 15:53:28 15:58:14 64° 291° (WNW) 16:02:59 436.000
SWISSCUBE 24 Jan 15:55:37 16:00:21 56° 293° (WNW) 16:05:02 437.505
AO-7 24 Jan 15:57:06 16:04:44 38° 265° (W) 16:12:26 29.400- 29.500
STARS 24 Jan 16:00:57 16:03:08 13° 86° (E) 16:05:18 437.465
M-CUBED/EXP-1 PRIME 24 Jan 16:03:50 16:05:50 15° 96° (E) 16:07:47 437.505
CUBESAT XI-V 24 Jan 16:08:28 16:11:47 19° 88° (E) 16:15:03 437.345
NOAA 18 24 Jan 16:13:16 16:17:22 22° 50° (NE) 16:21:28 137.9125
GOMX 1 24 Jan 16:17:28 16:22:30 52° 68° (ENE) 16:27:16 467.674
O/OREOS (USA 219) 24 Jan 16:22:00 16:25:11 19° 257° (WSW) 16:28:23 437.305
AO-85 24 Jan 16:23:18 16:26:57 26° 342° (NNW) 16:30:26 145.980
TISAT 1 24 Jan 16:23:25 16:24:38 11° 311° (NW) 16:25:51 437.305
CUTE-I 24 Jan 16:27:35 16:32:24 36° 60° (ENE) 16:37:14 437.470
ITAMSAT 1 24 Jan 16:29:37 16:31:13 11° 278° (W) 16:32:50 435.822/435.867
DOVE 4 24 Jan 16:34:53 16:39:08 34° 64° (ENE) 16:43:10 437.250
BEESAT 3 24 Jan 16:35:03 16:38:59 82° 133° (SE) 16:42:59 437.485
BRITE-PL 24 Jan 16:35:35 16:41:12 63° 259° (W) 16:46:37 437.365/2234.400
AUBIESAT-1 24 Jan 16:36:03 16:38:56 25° 102° (ESE) 16:41:44 437.475
DANDE 24 Jan 16:39:59 16:45:33 22° 281° (WNW) 16:51:25 436.750
MOZHAYETS 4 24 Jan 16:47:29 16:52:02 54° 292° (WNW) 16:56:34
HO-68 24 Jan 16:47:47 16:53:34 27° 45° (NE) 16:59:21 435.675
KKS-1 24 Jan 16:55:00 16:59:27 71° 104° (ESE) 17:03:52 437.445
YUBILEINY 24 Jan 16:59:43 17:06:35 24° 313° (NW) 17:13:30 435.215
ITUPSAT 1 24 Jan 17:00:10 17:03:56 23° 305° (NW) 17:07:41 437.325
NOAA 15 24 Jan 17:04:39 17:09:55 66° 68° (ENE) 17:15:14 137.62
HORYU 2 24 Jan 17:09:22 17:13:42 53° 259° (W) 17:18:04 437.375
LilacSat-2 24 Jan 17:11:27 17:15:13 67° 72° (ENE) 17:19:03 437.200
Cubesat XI-IV 24 Jan 17:11:38 17:16:55 70° 69° (ENE) 17:22:15 437.490
Cosmos 2504 24 Jan 17:22:13 17:28:44 25° 308° (NW) 17:34:58 435.465 / 435.565
BEESAT 2 24 Jan 17:29:34 17:33:33 74° 318° (NW) 17:37:36 435.950
CINEMA 3 24 Jan 17:31:42 17:35:22 29° 63° (ENE) 17:38:59 145.822/145.860
BEESAT 24 Jan 17:32:34 17:35:11 15° 312° (NW) 17:37:48 436.000
SWISSCUBE 24 Jan 17:34:55 17:37:13 13° 313° (NW) 17:39:30 437.505
CUTE 1.7 + AOD 2 24 Jan 17:35:45 17:39:00 21° 58° (ENE) 17:42:16 437.475
STARS 24 Jan 17:35:47 17:40:11 84° 104° (ESE) 17:44:35 437.465
Cosmos 2499 24 Jan 17:36:55 17:41:55 18° 74° (ENE) 17:46:44 435.465 / 435.565
M-CUBED/EXP-1 PRIME 24 Jan 17:37:23 17:40:45 56° 297° (WNW) 17:43:58 437.505
CUBESAT XI-V 24 Jan 17:45:00 17:49:45 77° 287° (WNW) 17:54:24 437.345
NOAA 18 24 Jan 17:51:53 17:57:24 86° 71° (ENE) 18:02:55 137.9125
GONETS M04 24 Jan 17:54:07 18:00:12 22° 72° (ENE) 18:06:18
GOMX 1 24 Jan 17:56:12 18:00:48 31° 266° (W) 18:05:12 467.674
CUBEBUG 2 24 Jan 17:57:29 18:00:09 17° 55° (NE) 18:02:49 437.445
COMPASS 1 24 Jan 18:04:24 18:07:27 20° 57° (ENE) 18:10:32 437.405
CANX-2 24 Jan 18:05:00 18:08:59 39° 66° (ENE) 18:13:00 2200.000
STRAND 1 24 Jan 18:05:03 18:06:08 11° 81° (E) 18:07:13 437.568
AO-85 24 Jan 18:05:15 18:08:31 22° 7° (N) 18:11:40 145.980
SEEDS 24 Jan 18:07:01 18:10:38 27° 61° (ENE) 18:14:15 437.485
CUTE-I 24 Jan 18:07:14 18:12:22 49° 261° (W) 18:17:32 437.470
AUBIESAT-1 24 Jan 18:10:22 18:13:27 32° 302° (WNW) 18:16:27 437.475
AAUSAT CUBESAT 2 24 Jan 18:11:11 18:14:06 19° 57° (ENE) 18:17:02 437.432
DOVE 4 24 Jan 18:12:16 18:16:48 42° 262° (W) 18:21:06 437.250
BEESAT 3 24 Jan 18:13:31 18:17:01 29° 337° (NNW) 18:20:34 437.485
UWE-3 24 Jan 18:16:19 18:19:00 17° 55° (NE) 18:21:44 435.000/436.395/437.385
BRITE-PL 24 Jan 18:17:58 18:20:39 13° 279° (W) 18:23:19 437.365/2234.400
ZACube-1 24 Jan 18:25:22 18:27:36 14° 52° (NE) 18:29:52 437.345
MOZHAYETS 4 24 Jan 18:26:23 18:28:16 12° 313° (NW) 18:30:08
AIST 2 24 Jan 18:30:30 18:33:40 21° 118° (ESE) 18:36:51 435.215
KKS-1 24 Jan 18:32:16 18:35:37 21° 304° (NW) 18:38:57 437.445
HO-68 24 Jan 18:33:14 18:40:27 81° 68° (ENE) 18:47:42 435.675
NOAA 15 24 Jan 18:45:46 18:50:09 26° 269° (W) 18:54:35 137.62
LilacSat-2 24 Jan 18:47:36 18:49:58 16° 272° (W) 18:52:20 437.200
Oscar 11 24 Jan 18:52:05 18:55:19 21° 57° (ENE) 18:58:34 145.826/435.025
Cubesat XI-IV 24 Jan 18:53:15 18:57:32 24° 270° (W) 19:01:50 437.490
YUBILEINY 24 Jan 19:05:55 19:07:53 11° 346° (NNW) 19:09:51 435.215
CINEMA 3 24 Jan 19:08:22 19:12:26 42° 262° (W) 19:16:26 145.822/145.860
BEESAT 2 24 Jan 19:08:32 19:11:56 26° 342° (NNW) 19:15:23 435.950
CUTE 1.7 + AOD 2 24 Jan 19:10:12 19:14:28 66° 258° (WSW) 19:18:46 437.475
STARS 24 Jan 19:13:02 19:16:02 18° 306° (NW) 19:19:02 437.465
CUBESAT XI-V 24 Jan 19:23:30 19:26:24 17° 309° (NW) 19:29:19 437.345
Cosmos 2499 24 Jan 19:25:45 19:33:48 69° 96° (E) 19:41:17 435.465 / 435.565
CUBEBUG 2 24 Jan 19:32:05 19:36:14 84° 252° (WSW) 19:40:27 437.445
HUMSAT D 24 Jan 19:32:16 19:34:09 13° 51° (NE) 19:36:03 437.325/437.525
FUNcube-1 24 Jan 19:33:30 19:37:25 43° 67° (ENE) 19:41:27 145.935
NOAA 18 24 Jan 19:34:49 19:38:47 20° 271° (W) 19:42:47 137.9125
COMPASS 1 24 Jan 19:38:23 19:42:35 71° 256° (WSW) 19:46:50 437.405
CANX-2 24 Jan 19:41:05 19:44:55 32° 265° (W) 19:48:49 2200.000
STRAND 1 24 Jan 19:41:23 19:46:29 57° 102° (ESE) 19:51:32 437.568
SEEDS 24 Jan 19:42:02 19:46:09 47° 261° (W) 19:50:18 437.485
AAUSAT CUBESAT 2 24 Jan 19:44:55 19:49:07 76° 255° (WSW) 19:53:21 437.432
AO-85 24 Jan 19:45:58 19:49:50 42° 31° (NNE) 19:53:35 145.980
GONETS M04 24 Jan 19:46:51 19:55:32 74° 96° (E) 20:04:19
UWE-3 24 Jan 19:50:48 19:54:56 84° 252° (WSW) 19:59:11 435.000/436.395/437.385
BEESAT 3 24 Jan 19:52:42 19:55:43 20° 0° (N) 19:58:44 437.485
ZACube-1 24 Jan 19:59:04 20:03:13 77° 74° (ENE) 20:07:28 437.345
AIST 2 24 Jan 20:07:33 20:11:43 78° 318° (NW) 20:15:57 435.215
DELFI C3 24 Jan 20:21:44 20:25:34 44° 68° (ENE) 20:29:25 145.870
HO-68 24 Jan 20:22:55 20:28:58 28° 270° (W) 20:35:04 435.675
Oscar 11 24 Jan 20:26:43 20:31:03 70° 258° (WSW) 20:35:25 145.826/435.025
RS-15 24 Jan 20:40:09 20:42:26 11° 85° (E) 20:44:43 29.354- 29.394
BEESAT 2 24 Jan 20:47:45 20:50:52 21° 5° (N) 20:53:59 435.950
CUTE 1.7 + AOD 2 24 Jan 20:50:46 20:51:11 10° 278° (W) 20:51:36 437.475
PRISM 24 Jan 20:55:47 20:58:57 21° 92° (E) 21:02:05 437.425
HUMSAT D 24 Jan 21:04:53 21:09:00 67° 72° (ENE) 21:13:12 437.325/437.525
YUBILEINY 24 Jan 21:06:57 21:10:19 12° 22° (NNE) 21:13:39 435.215
UNISAT 6 24 Jan 21:08:46 21:10:46 13° 85° (E) 21:12:48 437.425
JAS-2 24 Jan 21:10:06 21:12:34 12° 75° (ENE) 21:15:05 435.910
FUNcube-1 24 Jan 21:10:17 21:13:51 27° 267° (W) 21:17:30 145.935
CUBEBUG 2 24 Jan 21:11:53 21:13:37 12° 275° (W) 21:15:21 437.445
COMPASS 1 24 Jan 21:17:56 21:18:57 11° 277° (W) 21:19:58 437.405
TIGRISAT 24 Jan 21:20:11 21:22:47 15° 87° (E) 21:25:24 435.000
Cosmos 2499 24 Jan 21:20:16 21:27:31 36° 298° (WNW) 21:34:21 435.465 / 435.565
STRAND 1 24 Jan 21:20:57 21:25:26 31° 302° (WNW) 21:29:55 437.568
AAUSAT CUBESAT 2 24 Jan 21:23:54 21:25:21 12° 276° (W) 21:26:49 437.432
BY70-1 24 Jan 21:26:14 21:29:04 28° 64° (ENE) 21:32:00 436.1900
AO-85 24 Jan 21:26:30 21:30:16 42° 233° (SW) 21:33:57 145.980
VELOX 1 24 Jan 21:30:08 21:32:24 14° 50° (NE) 21:34:40 145.980
UWE-3 24 Jan 21:30:25 21:32:10 12° 276° (W) 21:33:55 435.000/436.395/437.385
BEESAT 3 24 Jan 21:30:50 21:34:23 30° 24° (NNE) 21:37:57 437.485
ANTELSAT 24 Jan 21:36:04 21:39:30 21° 91° (E) 21:42:58 437.575/2403.000
ESTCUBE 1 24 Jan 21:36:56 21:40:53 30° 61° (ENE) 21:44:51 437.505/2401.250
ZACube-1 24 Jan 21:37:32 21:40:05 16° 273° (W) 21:42:41 437.345
GONETS M04 24 Jan 21:45:15 21:53:13 37° 302° (WNW) 22:01:16
AIST 2 24 Jan 21:47:07 21:50:46 28° 341° (NNW) 21:54:27 435.215
DX 1 24 Jan 21:47:47 21:49:10 11° 47° (NE) 21:50:33 434.975-435.025
ISS 24 Jan 21:52:22 21:54:54 21° 153° (SSE) 21:57:27 145.825
DELFI C3 24 Jan 21:57:10 22:00:33 25° 267° (W) 22:03:57 145.870
CUBEBUG 1 24 Jan 22:02:25 22:06:15 30° 62° (ENE) 22:10:06 437.445
Oscar 11 24 Jan 22:06:46 22:08:02 11° 277° (W) 22:09:17 145.826/435.025
50 SAT 24 Jan 22:21:37 22:24:17 20° 60° (ENE) 22:26:58 437.505
BEESAT 2 24 Jan 22:25:51 22:29:38 36° 28° (NNE) 22:33:24 435.950
PRISM 24 Jan 22:30:31 22:34:35 56° 292° (WNW) 22:38:35 437.425
AISAT 24 Jan 22:30:59 22:35:05 38° 64° (ENE) 22:39:12 437.250
RS-15 24 Jan 22:40:12 22:51:04 43° 111° (ESE) 23:02:13 29.354- 29.394
HUMSAT D 24 Jan 22:42:11 22:45:05 18° 272° (W) 22:48:01 437.325/437.525
UNISAT 6 24 Jan 22:43:46 22:48:14 77° 104° (ESE) 22:52:47 437.425
JAS-2 24 Jan 22:52:24 22:59:19 47° 97° (E) 23:06:44 435.910
TIGRISAT 24 Jan 22:55:39 23:00:06 90° 296° (WNW) 23:04:39 435.000
BY70-1 24 Jan 22:56:23 22:59:14 28° 264° (W) 23:02:12 436.1900
SPROUT 24 Jan 22:57:24 23:01:26 45° 67° (ENE) 23:05:30 437.525
YUBILEINY 24 Jan 23:03:27 23:11:04 30° 53° (NE) 23:18:35 435.215
VELOX 1 24 Jan 23:03:42 23:08:07 67° 70° (ENE) 23:12:32 145.980
BEESAT 3 24 Jan 23:08:24 23:12:25 82° 224° (SW) 23:16:26 437.485
UKube-1 24 Jan 23:10:12 23:14:08 34° 62° (ENE) 23:18:03 .
ANTELSAT 24 Jan 23:12:11 23:16:36 63° 290° (WNW) 23:21:05 437.575/2403.000
ESTCUBE 1 24 Jan 23:13:08 23:17:32 48° 261° (W) 23:21:59 437.505/2401.250
QB50P1 24 Jan 23:13:41 23:16:58 21° 91° (E) 23:20:15 145.935-145.965
Cosmos 2504 24 Jan 23:16:45 23:21:55 19° 45° (NE) 23:26:55 435.465 / 435.565
POLYITAN 1 24 Jan 23:19:16 23:22:45 24° 92° (E) 23:26:13 437.675
DX 1 24 Jan 23:20:13 23:24:28 52° 67° (ENE) 23:28:43 434.975-435.025
QB50P2 24 Jan 23:20:38 23:24:14 26° 93° (E) 23:27:48 145.880/145.840
Cosmos 2499 24 Jan 23:20:46 23:23:26 12° 326° (NNW) 23:26:03 435.465 / 435.565
AIST 2 24 Jan 23:27:04 23:30:25 22° 5° (N) 23:33:46 435.215
ISS 24 Jan 23:27:48 23:30:56 43° 172° (S) 23:34:02 145.825
CUBEBUG 1 24 Jan 23:38:14 23:42:26 44° 261° (W) 23:46:39 437.445
POPSAT HIP 1 24 Jan 23:40:44 23:44:39 35° 97° (E) 23:48:33 437.405
DUCHIFAT 1 24 Jan 23:45:30 23:49:22 34° 96° (E) 23:53:14 145.980
PCSat 24 Jan 23:48:09 23:52:55 32° 115° (ESE) 23:57:42 145.827
GONETS M04 24 Jan 23:49:06 23:53:28 14° 332° (NNW) 23:57:51
NANOSAT C BR1 24 Jan 23:53:31 23:57:34 44° 99° (E) 00:01:37 145.865
50 SAT 24 Jan 23:53:43 23:57:13 51° 259° (W) 00:00:45 437.505
BEESAT 24 Jan 23:54:35 23:56:55 14° 47° (NE) 23:59:16 436.000
SWISSCUBE 24 Jan 23:56:18 23:58:59 15° 48° (NE) 00:01:40 437.505
AIST 1 24 Jan 23:58:37 00:02:48 50° 73° (ENE) 00:06:56
BUGSAT 1 25 Jan 00:01:05 00:04:09 21° 91° (E) 00:07:14 437.445
BEESAT 2 25 Jan 00:03:39 00:07:38 58° 230° (SW) 00:11:37 435.950
Cosmos 2491 25 Jan 00:06:37 00:12:41 22° 72° (ENE) 00:18:46 435.465 / 435.565
AISAT 25 Jan 00:07:32 00:11:36 35° 264° (W) 00:15:41 437.250
PRISM 25 Jan 00:07:50 00:09:02 11° 312° (NW) 00:10:14 437.425
TISAT 1 25 Jan 00:08:34 00:12:28 40° 66° (ENE) 00:16:24 437.305
Oscar 19 25 Jan 00:19:49 00:22:11 13° 83° (E) 00:24:32 437.125/150
UNISAT 6 25 Jan 00:21:18 00:24:31 20° 304° (NW) 00:27:47 437.425
TIGRISAT 25 Jan 00:33:20 00:36:15 18° 306° (NW) 00:39:13 435.000
SPROUT 25 Jan 00:33:55 00:37:33 27° 266° (W) 00:41:13 437.525
JAS-2 25 Jan 00:37:36 00:44:28 55° 296° (WNW) 00:51:55 435.910
VELOX 1 25 Jan 00:41:44 00:45:01 20° 270° (W) 00:48:19 145.980
MOZHAYETS 4 25 Jan 00:45:28 00:47:19 12° 47° (NE) 00:49:10
UKube-1 25 Jan 00:46:07 00:50:09 37° 262° (W) 00:54:12 .
BEESAT 3 25 Jan 00:47:06 00:49:27 15° 245° (WSW) 00:51:48 437.485
QB50P1 25 Jan 00:48:55 00:53:05 57° 291° (WNW) 00:57:14 145.935-145.965
ANTELSAT 25 Jan 00:50:26 00:52:33 13° 310° (NW) 00:54:40 437.575/2403.000
RS-15 25 Jan 00:50:29 01:02:39 85° 318° (NW) 01:15:10 29.354- 29.394
POLYITAN 1 25 Jan 00:54:41 00:58:49 51° 292° (WNW) 01:02:56 437.675
CUSAT 1 25 Jan 00:55:17 00:58:15 13° 69° (ENE) 01:01:24 437.405
QB50P2 25 Jan 00:56:10 01:00:14 47° 293° (WNW) 01:04:19 145.880/145.840
DX 1 25 Jan 00:57:20 01:00:56 25° 267° (W) 01:04:33 434.975-435.025
ITUPSAT 1 25 Jan 00:58:16 01:02:33 34° 61° (ENE) 01:06:53 437.325
YUBILEINY 25 Jan 01:00:18 01:09:12 89° 72° (ENE) 01:18:00 435.215
ISS 25 Jan 01:04:02 01:07:05 38° 193° (SSW) 01:10:09 145.825
AIST 2 25 Jan 01:05:55 01:09:54 37° 28° (NNE) 01:13:53 435.215
Cosmos 2504 25 Jan 01:09:41 01:17:08 64° 73° (ENE) 01:24:15 435.465 / 435.565
Gurwin Techsat 1B 25 Jan 01:11:14 01:15:07 20° 88° (E) 01:18:59 435.225
POPSAT HIP 1 25 Jan 01:16:36 01:20:26 34° 296° (WNW) 01:24:16 437.405
DUCHIFAT 1 25 Jan 01:21:14 01:25:04 35° 296° (WNW) 01:28:54 145.980
M-CUBED/EXP-1 PRIME 25 Jan 01:22:52 01:25:06 15° 48° (NE) 01:27:16 437.505
BEESAT 25 Jan 01:29:08 01:33:48 58° 68° (ENE) 01:38:31 436.000
NANOSAT C BR1 25 Jan 01:29:32 01:33:10 29° 298° (WNW) 01:36:48 145.865
PCSat 25 Jan 01:30:37 01:36:02 67° 317° (NW) 01:41:29 145.827
SWISSCUBE 25 Jan 01:31:14 01:35:57 66° 69° (ENE) 01:40:44 437.505
BUGSAT 1 25 Jan 01:35:53 01:39:51 55° 291° (WNW) 01:43:50 437.445
AIST 1 25 Jan 01:36:44 01:40:07 23° 273° (W) 01:43:28
BEESAT 2 25 Jan 01:43:51 01:44:37 10° 249° (WSW) 01:45:23 435.950
TISAT 1 25 Jan 01:44:34 01:48:14 29° 265° (W) 01:51:55 437.305
AUBIESAT-1 25 Jan 01:54:25 01:57:23 21° 53° (NE) 02:00:13 437.475
Oscar 19 25 Jan 01:57:21 02:02:32 68° 103° (ESE) 02:07:40 437.125/150
AO-7 25 Jan 01:58:29 02:02:19 14° 78° (ENE) 02:06:08 29.400- 29.500
Cosmos 2491 25 Jan 01:59:24 02:08:04 75° 96° (E) 02:16:47 435.465 / 435.565
MOZHAYETS 4 25 Jan 02:19:04 02:23:33 54° 68° (ENE) 02:28:05
KKS-1 25 Jan 02:24:13 02:27:57 27° 59° (ENE) 02:31:40 437.445
QB50P1 25 Jan 02:26:37 02:28:01 11° 311° (NW) 02:29:26 145.935-145.965
